TimeMST,TemperatureF,Dew PointF,Humidity,Sea Level PressureIn,VisibilityMPH,Wind Direction,Wind SpeedMPH,Gust SpeedMPH,PrecipitationIn,Events,Conditions,WindDirDegrees,DateUTC
12:15 AM,41.0,41.0,100,30.15,10.0,SSE,3.5,-,N/A,,Mostly Cloudy,160,2013-01-05 07:15:00
12:35 AM,41.0,41.0,100,30.15,10.0,South,3.5,-,N/A,,Overcast,180,2013-01-05 07:35:00
12:55 AM,41.0,41.0,100,30.15,7.0,SSE,4.6,-,N/A,,Overcast,160,2013-01-05 07:55:00
1:15 AM,42.8,42.8,100,30.15,10.0,Calm,Calm,-,N/A,,Overcast,0,2013-01-05 08:15:00
1:35 AM,42.8,42.8,100,30.14,10.0,Calm,Calm,-,N/A,,Overcast,0,2013-01-05 08:35:00
1:55 AM,42.8,42.8,100,30.14,10.0,Calm,Calm,-,N/A,,Overcast,0,2013-01-05 08:55:00
2:15 AM,42.8,42.8,100,30.14,7.0,SE,3.5,-,N/A,,Overcast,140,2013-01-05 09:15:00
2:35 AM,42.8,42.8,100,30.14,10.0,Calm,Calm,-,N/A,,Overcast,0,2013-01-05 09:35:00
2:55 AM,42.8,42.8,100,30.14,10.0,SSE,3.5,-,N/A,,Overcast,160,2013-01-05 09:55:00
3:15 AM,42.8,42.8,100,30.14,10.0,SSE,3.5,-,N/A,,Overcast,150,2013-01-05 10:15:00
3:35 AM,42.8,42.8,100,30.15,10.0,Calm,Calm,-,N/A,,Overcast,0,2013-01-05 10:35:00
3:55 AM,42.8,42.8,100,30.15,10.0,ESE,3.5,-,N/A,,Overcast,120,2013-01-05 10:55:00
4:15 AM,42.8,42.8,100,30.14,7.0,Calm,Calm,-,N/A,,Overcast,0,2013-01-05 11:15:00
4:35 AM,44.6,44.6,100,30.13,10.0,SSW,3.5,-,N/A,,Overcast,210,2013-01-05 11:35:00
4:55 AM,42.8,42.8,100,30.14,10.0,SSW,4.6,-,N/A,,Overcast,200,2013-01-05 11:55:00
5:15 AM,42.8,42.8,100,30.13,10.0,ESE,5.8,-,N/A,,Overcast,110,2013-01-05 12:15:00
5:35 AM,42.8,42.8,100,30.14,10.0,Calm,Calm,-,N/A,,Overcast,0,2013-01-05 12:35:00
5:55 AM,44.6,44.6,100,30.13,10.0,East,4.6,-,N/A,,Overcast,90,2013-01-05 12:55:00
6:15 AM,42.8,42.8,100,30.13,10.0,Calm,Calm,-,N/A,,Overcast,0,2013-01-05 13:15:00
6:35 AM,42.8,41.0,93,30.13,10.0,South,3.5,-,N/A,,Mostly Cloudy,190,2013-01-05 13:35:00
6:55 AM,42.8,41.0,93,30.13,10.0,SSE,4.6,-,N/A,,Overcast,160,2013-01-05 13:55:00
7:15 AM,42.8,42.8,100,30.12,10.0,Calm,Calm,-,N/A,,Overcast,0,2013-01-05 14:15:00
7:35 AM,44.6,41.0,87,30.12,10.0,ENE,9.2,-,N/A,,Overcast,60,2013-01-05 14:35:00
7:55 AM,44.6,39.2,81,30.11,10.0,ESE,6.9,-,N/A,,Overcast,110,2013-01-05 14:55:00
8:15 AM,42.8,41.0,93,30.11,10.0,SE,4.6,-,N/A,,Mostly Cloudy,140,2013-01-05 15:15:00
8:55 AM,42.8,41.0,93,30.12,10.0,NW,6.9,-,N/A,,Scattered Clouds,320,2013-01-05 15:55:00
9:15 AM,44.6,41.0,87,30.14,10.0,WSW,8.1,-,N/A,,Scattered Clouds,250,2013-01-05 16:15:00
9:55 AM,44.6,39.2,81,30.16,10.0,Calm,Calm,-,N/A,,Mostly Cloudy,0,2013-01-05 16:55:00
10:15 AM,44.6,41.0,87,30.16,10.0,Calm,Calm,-,N/A,,Scattered Clouds,0,2013-01-05 17:15:00
10:35 AM,44.6,41.0,87,30.17,10.0,SW,3.5,-,N/A,,Scattered Clouds,230,2013-01-05 17:35:00
10:55 AM,44.6,42.8,93,30.17,10.0,Calm,Calm,-,N/A,,Clear,0,2013-01-05 17:55:00
11:15 AM,44.6,42.8,93,30.17,10.0,SE,3.5,-,N/A,,Clear,130,2013-01-05 18:15:00
11:35 AM,46.4,42.8,87,30.16,10.0,Calm,Calm,-,N/A,,Clear,0,2013-01-05 18:35:00
11:55 AM,46.4,41.0,81,30.16,10.0,WSW,4.6,-,N/A,,Scattered Clouds,250,2013-01-05 18:55:00
12:15 PM,48.2,41.0,76,30.15,10.0,ENE,4.6,-,N/A,,Scattered Clouds,70,2013-01-05 19:15:00
12:35 PM,48.2,42.8,82,30.15,10.0,WSW,4.6,-,N/A,,Scattered Clouds,250,2013-01-05 19:35:00
12:55 PM,48.2,41.0,76,30.16,10.0,West,4.6,-,N/A,,Mostly Cloudy,270,2013-01-05 19:55:00
1:15 PM,48.2,41.0,76,30.15,10.0,Calm,Calm,-,N/A,,Overcast,0,2013-01-05 20:15:00
1:35 PM,48.2,41.0,76,30.14,10.0,Calm,Calm,-,N/A,,Mostly Cloudy,0,2013-01-05 20:35:00
1:55 PM,48.2,41.0,76,30.14,10.0,Calm,Calm,-,N/A,,Overcast,0,2013-01-05 20:55:00
2:15 PM,48.2,41.0,76,30.13,10.0,Calm,Calm,-,N/A,,Overcast,0,2013-01-05 21:15:00
2:35 PM,48.2,41.0,76,30.13,10.0,Calm,Calm,-,N/A,,Overcast,0,2013-01-05 21:35:00
2:55 PM,48.2,41.0,76,30.12,10.0,Calm,Calm,-,N/A,,Overcast,0,2013-01-05 21:55:00
3:15 PM,48.2,41.0,76,30.12,10.0,Calm,Calm,-,N/A,,Overcast,0,2013-01-05 22:15:00
3:55 PM,50.0,42.8,76,30.12,10.0,Calm,Calm,-,N/A,,Overcast,0,2013-01-05 22:55:00
4:15 PM,50.0,42.8,76,30.13,10.0,Calm,Calm,-,N/A,,Overcast,0,2013-01-05 23:15:00
4:35 PM,50.0,41.0,71,30.13,10.0,Calm,Calm,-,N/A,,Overcast,0,2013-01-05 23:35:00
4:55 PM,50.0,41.0,71,30.13,10.0,Calm,Calm,-,N/A,,Overcast,0,2013-01-05 23:55:00
5:15 PM,48.2,41.0,76,30.13,10.0,Calm,Calm,-,N/A,Rain,Light Rain,0,2013-01-06 00:15:00
5:35 PM,48.2,42.8,82,30.14,7.0,Calm,Calm,-,0.01,Rain,Light Rain,0,2013-01-06 00:35:00
5:55 PM,46.4,44.6,93,30.14,5.0,Calm,Calm,-,0.03,Rain,Light Rain,0,2013-01-06 00:55:00
6:15 PM,46.4,42.8,87,30.14,7.0,East,3.5,-,0.02,Rain,Light Rain,100,2013-01-06 01:15:00
6:55 PM,44.6,42.8,93,30.15,7.0,Calm,Calm,-,0.03,Rain,Light Rain,0,2013-01-06 01:55:00
7:15 PM,44.6,42.8,93,30.15,5.0,SSW,3.5,-,0.01,Rain,Light Rain,210,2013-01-06 02:15:00
7:35 PM,44.6,42.8,93,30.16,7.0,South,5.8,-,0.02,Rain,Light Rain,190,2013-01-06 02:35:00
7:55 PM,44.6,42.8,93,30.16,7.0,Calm,Calm,-,0.02,,Overcast,0,2013-01-06 02:55:00
8:15 PM,44.6,42.8,93,30.16,5.0,Calm,Calm,-,N/A,Rain,Light Rain,0,2013-01-06 03:15:00
8:35 PM,44.6,42.8,93,30.17,5.0,Calm,Calm,-,0.01,Rain,Light Rain,0,2013-01-06 03:35:00
8:55 PM,44.6,42.8,93,30.17,7.0,Calm,Calm,-,0.01,,Overcast,0,2013-01-06 03:55:00
9:15 PM,44.6,42.8,93,30.17,3.0,Calm,Calm,-,N/A,,Light Drizzle,0,2013-01-06 04:15:00
9:35 PM,44.6,42.8,93,30.17,5.0,Calm,Calm,-,N/A,,Overcast,0,2013-01-06 04:35:00
9:55 PM,44.6,42.8,93,30.17,4.0,ESE,3.5,-,N/A,,Overcast,110,2013-01-06 04:55:00
10:15 PM,44.6,42.8,93,30.17,7.0,Calm,Calm,-,0.01,,Overcast,0,2013-01-06 05:15:00
10:35 PM,42.8,42.8,100,30.18,7.0,Calm,Calm,-,0.01,,Overcast,0,2013-01-06 05:35:00
10:55 PM,44.6,42.8,93,30.18,7.0,Calm,Calm,-,0.01,,Overcast,0,2013-01-06 05:55:00
11:15 PM,42.8,42.8,100,30.18,7.0,Calm,Calm,-,N/A,,Overcast,0,2013-01-06 06:15:00
11:35 PM,44.6,42.8,93,30.18,5.0,Calm,Calm,-,N/A,,Overcast,0,2013-01-06 06:35:00
11:55 PM,42.8,42.8,100,30.19,5.0,Calm,Calm,-,N/A,,Overcast,0,2013-01-06 06:55:00